Startpagina
METAR-TAF:

METAR-TAF

Vliegvelden :

Vlissingen, Nederland

breedte: 51-27N, lengte: 3-36E, hoogte: 10 m

Actueel weer

Dit bericht is 40 minuten geleden gemaakt, om 06:25 UTC
Wind 3 kt uit het oosten, variërend tussen het noorden en het oostzuidoosten
Temperatuur 11°C
Vochtigheid 87%
Druk 1030 hPa
Zicht: 7000 m

METAR: EHFS 200625Z AUTO 08003KT 360V110 7000 NSC 11/09 Q1030 W///H///

Tijdstip: 09:05 (07:05 UTC)


TAF: ontbreekt

Waarnemingen en weersverwachtingen van meer dan 4000 vliegvelden (METAR en TAF).

De beschikbare stations zijn de gele en rode punten op de kaart.

Ga met uw muis naar het station om de naam te zien.

Klik dan om waarnemingen en weersverwachtingen te zien.

kaart wijzigen: klik op de groene knoppen met een zwart kruis om in te zoomen, op de groene knop met een streepje om uit te zoomen of op de groene pijlen voor aangrenzende kaarten.


METAR-TAF: